weather.gov     
National Weather Service

Terminal Aerodrome Forecast
NWS Homepage
This page is being discontinued on March 12, 2014.
The same data is available at this site. Please update your bookmarks.
Thank you, and we apologize for the inconvenience.
Please send an email to SR-SRH.Webmaster@noaa.gov with any concerns.


Current Version
Previous Version:    01  02  03  04  05  06  07  08  09  10  11  12  13  14  15  16  17  18  19  20  21  22  23  24  25  26  27  28  
[Printable]
129
FTUS42 KJAX 230500
TAFGNV
TAF
KGNV 230520Z 2306/2406 12010KT 5SM -RA VCTS SCT025CB OVC040
      WS020/16040KT
      TEMPO 2306/2310 2SM RA BKN006 OVC015
     FM231500 18015G24KT P6SM VCTS SCT025CB BKN035
     FM240000 20010KT P6SM VCSH SCT035 BKN050=


U.S. Dept. of Commerce
NOAA National Weather Service
1325 East West Highway
Silver Spring, MD 20910
E-mail: w-nws.webmaster@noaa.gov
Page last modified: May 16, 2007
NATIONAL WEATHER SERVICE: for Safety, for Work, for Fun - FOR LIFE